Location: Unspecified
(0.0000°N, 0.0000°E)
Time: 18:50:56
(UTC+00:00)

Altair - Pass Details

Date: 20 November 2019
Orbit: 1502 x 1682 km, 47.2° (Epoch: 05 December)

Event Time Altitude Azimuth Distance (km) Brightness Sun altitude
Rises 20:46:10 0° 185° (S) 4,851 10.5 -41.8°
Enters shadow 20:52:54 10° 153° (SSE) 3,816 9.5 -43.3°
Reaches altitude 10° 20:52:57 10° 153° (SSE) 3,812 - -43.3°
Maximum altitude 20:55:29 11° 137° (SE) 3,697 - -43.9°
Drops below altitude 10° 20:58:00 10° 121° (ESE) 3,772 - -44.4°
Sets 21:04:28 0° 89° (E) 4,705 - -45.9°
